This is the latest recevied weather packets stored in our database for station/object W6ORV. If no packets are shown the sender has not sent any weather packets the latest 10 day(s).
| Time | Temp. | Humidity | Pressure | Rain* | Wind** | Luminosity | Snow |
|---|---|---|---|---|---|---|---|
| 1777856173 | 15° C | 64% | 4298.1 hPa | 0 mm | - | 233 W/m² | - |
| 1777855870 | 15° C | 64% | 4298 hPa | 0 mm | - | 241 W/m² | - |
| 1777855568 | 15.56° C | 64% | 4298.2 hPa | 0 mm | - | 265 W/m² | - |
| 1777855265 | 16.11° C | 62% | 4298 hPa | 0 mm | - | 274 W/m² | - |
| 1777854961 | 15.56° C | 64% | 4298.1 hPa | 0 mm | - | 300 W/m² | - |
| 1777854658 | 15.56° C | 62% | 4297.9 hPa | 0 mm | - | 306 W/m² | - |
| 1777854355 | 16.11° C | 60% | 4298 hPa | 0 mm | - | 327 W/m² | - |
| 1777854053 | 16.11° C | 62% | 4298 hPa | 0 mm | - | 373 W/m² | - |
| 1777853750 | 16.67° C | 61% | 4297.5 hPa | 0 mm | - | 365 W/m² | - |
| 1777853446 | 16.67° C | 60% | 4297.5 hPa | 0 mm | - | 362 W/m² | - |
| 1777853143 | 16.67° C | 57% | 4297.4 hPa | 0 mm | - | 389 W/m² | - |
| 1777852841 | 16.67° C | 58% | 4297.5 hPa | 0 mm | - | 400 W/m² | - |
| 1777852539 | 16.67° C | 57% | 4297.6 hPa | 0 mm | - | 421 W/m² | - |
| 1777852235 | 16.11° C | 59% | 4297.3 hPa | 0 mm | - | 434 W/m² | - |
| 1777851933 | 16.67° C | 59% | 4297.3 hPa | 0 mm | - | 468 W/m² | - |
| 1777851631 | 16.67° C | 56% | 4297.5 hPa | 0 mm | - | 478 W/m² | - |
| 1777851327 | 16.67° C | 56% | 4297.3 hPa | 0 mm | - | 498 W/m² | - |
| 1777851023 | 17.22° C | 54% | 4297.3 hPa | 0 mm | - | 514 W/m² | - |
| 1777850720 | 16.67° C | 54% | 4297.3 hPa | 0 mm | - | 515 W/m² | - |
| 1777850418 | 16.67° C | 54% | 4297.2 hPa | 0 mm | - | 551 W/m² | - |
| 1777850116 | 17.78° C | 53% | 4297.1 hPa | 0 mm | - | 563 W/m² | - |
| 1777849812 | 17.22° C | 53% | 4297.4 hPa | 0 mm | - | 593 W/m² | - |
| 1777849509 | 17.22° C | 56% | 4297.3 hPa | 0 mm | - | 617 W/m² | - |
| 1777849206 | 17.78° C | 54% | 4297.3 hPa | 0 mm | - | 627 W/m² | - |
| 1777848903 | 17.22° C | 55% | 4297.2 hPa | 0 mm | - | 645 W/m² | - |
* Rain latest hour (hover to see other rain measurements)
** Current wind speed in m/s (hover to see current wind gust speed)